Torna al catalogo

STARLINK-38260

AttivoComunicazioniSSO
NORAD 100304·PAYLOAD·🇺🇸 United States

Lanciato Aug 12, 2026 da Vandenberg Space Force Base

Loading…

Prossimi Passaggi (prossime 24 ore)

TLE

AggiornatoSource: Space-Track

Epoca: Sep 14, 2026, 14:38 UTC

1 A0304U 26184D   26257.61023729  .00011618  00000-0  36152-3 0  9997
2 A0304  97.2833 122.7512 0001716 102.6027 257.5408 15.33455298  6455

Traccia STARLINK-38260 in tempo reale con AllMySat

Download on the App Store